Location: Newark
(9.4667°S, 159.8167°E)
Time: 22:40:36
(UTC+00:00)

Courier 1B Rocket - Pass Details

Date: 20 November 2019
Orbit: 920 x 1202 km, 28.2° (Epoch: 05 December)

Event Time Altitude Azimuth Distance (km) Brightness Sun altitude
Rises 16:08:59 0° 253° (WSW) 3,911 - -36.4°
Reaches altitude 10° 16:12:47 10° 236° (SW) 2,898 - -35.6°
Exits shadow 16:16:33 18° 204° (SSW) 2,297 7.0 -34.8°
Maximum altitude 16:17:30 19° 193° (SSW) 2,256 7.0 -34.6°
Drops below altitude 10° 16:22:02 10° 150° (SSE) 2,760 8.0 -33.7°
Sets 16:25:33 0° 132° (SE) 3,661 9.1 -32.9°
